User: anonymous   Login
Location: Althorst
(53.6379°N, 10.7715°E)
Time: 09:01:21
(UTC+00:00)
Language:

Cosmos 1812 - Orbit

View from above orbital plane
View from above orbital plane
View from above satellite
View from above satellite

Ground track
Ground track

The orbit data is extracted from the following two-line orbital elements,

1 17295U 87003A   20055.99195702  .00000173  00000-0  74700-5 0  9990
2 17295  82.5114 257.3226 0002864 354.3745   5.7455 15.15447749807766
Epoch (UTC): 24 February 2020 23:48:25
Eccentricity: 0.0002864
inclination: 82.5114°
perigee height: 517 km
apogee height: 521 km
right ascension of ascending node: 257.3226°
argument of perigee: 354.3745°
revolutions per day: 15.15447749
mean anomaly at epoch: 5.7455°
orbit number at epoch: 80776

The dashed part of the orbit path shows where the satellite is in the earth's shadow,  

DLR